Regional Weather Roundup
Issued by NWS

Home | Current Version | Previous Version | Graphics & Text | Print | Product List | Glossary On
Versions: 1 2 3 4 5 6 7 8 9 10 11 12 13 14 15 16 17 18 19 20 21 22 23 24 25 26 27 28 29 30 31 32 33 34 35 36 37 38 39 40 41 42 43 44 45 46 47 48 49 50
618
ASUS43 KDMX 221801
RWRIA

WEATHER ROUNDUP FOR IOWA
NATIONAL WEATHER SERVICE DES MOINES IA
100 PM CDT MON MAY 22 2017

NOTE: "FAIR" INDICATES FEW OR NO CLOUDS BELOW 12,000 FEET WITH NO
SIGNIFICANT WEATHER AND/OR OBSTRUCTIONS TO VISIBILITY.

* - THESE STATIONS ARE NOT NWS STATIONS...THUS NOT UNDER NWS
QUALITY CONTROL.  THEY ALSO DO NOT REPORT WEATHER SUCH
AS PRECIPITATION OR FOG.

IAZ001>003-012>014-020>022-031>034-043>046-221900-
   NORTHWEST IOWA

CITY           SKY/WX    TMP DP  RH WIND       PRES   REMARKS
CARROLL *      SUNNY     70  52  52 W14       29.88F
CHEROKEE *     SUNNY     68  50  52 W12G17    29.87S
DENISON *      SUNNY     70  48  46 W10G20    29.90F
LE MARS *      SUNNY     68  48  49 W16       29.88S
ORANGE CITY *  SUNNY     66  52  59 W13       29.87S
SHELDON *      MOSUNNY   66  52  59 W14         N/A
SIOUX CITY     SUNNY     70  48  45 NW15      29.87F
6HR MIN TEMP:  50; 6HR MAX TEMP:  71;

SPENCER        SUNNY     67  50  54 NW10      29.86F
6HR MIN TEMP:  51; 6HR MAX TEMP:  67; 6HR PCP: TRACE;

STORM LAKE *   SUNNY     66  46  48 W14G21    29.88S
$$

IAZ055>058-069>071-079>083-090>094-221900-
   SOUTHWEST IOWA

CITY           SKY/WX    TMP DP  RH WIND       PRES   REMARKS
ATLANTIC *     PTSUNNY   70  52  52 SW13G20   29.92S
AUDUBON *      CLOUDY    70  52  52 W7        29.91F
CLARINDA *     PTSUNNY   66  59  77 SW21      29.98S
COUNCIL BLFS * MOSUNNY   68  52  56 SW10G17   29.92F
CRESTON *      MOSUNNY   66  57  72 SW16G23   29.95F
HARLAN  *      SUNNY     70  48  46 SW15G22   29.94F
LAMONI         LGT RAIN  60  55  83 SW18G29   29.98R
6HR MIN TEMP:  52; 6HR MAX TEMP:  63; 6HR PCP: TRACE;

RED OAK *      CLOUDY    68  54  60 SW14G23   29.94F
SHENANDOAH *   CLOUDY    66  55  68 SW20      29.96S
$$

IAZ047>049-059>061-072>074-084-221900-
   CENTRAL IOWA

CITY           SKY/WX    TMP DP  RH WIND       PRES   REMARKS
AMES           SUNNY     70  55  59 SW13      29.88F
6HR MIN TEMP:  50; 6HR MAX TEMP:  70; 6HR PCP: TRACE;

ANKENY *       MOSUNNY   70  52  52 W9G17     29.90F
BOONE *        MOSUNNY   70  52  52 W14       29.88S
DES MOINES     PTSUNNY   69  54  58 SW18      29.90S
6HR MIN TEMP:  54; 6HR MAX TEMP:  69;

GRINNELL*      CLOUDY    67  53  62 SW16      29.91S
MARSHALLTOWN   SUNNY     69  56  62 SW17      29.88S
6HR MIN TEMP:  51; 6HR MAX TEMP:  69; 6HR PCP: TRACE;

NEWTON *       CLOUDY    66  54  63 SW16      29.89F
PELLA *        CLOUDY    66  53  62 SW14      29.93S
PERRY *          N/A     70  53  54 W13       29.89F
$$

IAZ004>006-015-016-023>025-035-036-221900-
   NORTH CENTRAL IOWA

CITY           SKY/WX    TMP DP  RH WIND       PRES   REMARKS
ALGONA *       MOSUNNY   66  54  63 W7        29.86F
CLARION *      SUNNY     68  54  60 W8G16     29.86F
ESTHERVILLE    SUNNY     64  48  56 VRB3      29.85F
6HR MIN TEMP:  44; 6HR MAX TEMP:  65;

FORT DODGE *   SUNNY     70  54  56 SW8       29.87F
MASON CITY     MOSUNNY   62  51  67 CALM      29.88F
6HR MIN TEMP:  47; 6HR MAX TEMP:  64; 6HR PCP:  0.03;

FOREST CITY *    N/A     72  41  33 CALM      29.87F
WEBSTER CITY * MOSUNNY   68  52  56 W9        29.85F
IOWA FALLS *   PTSUNNY   68  55  62 SW13      29.89S
$$

IAZ007>011-017>019-026>030-037>042-050>054-066-221900-
   NORTHEAST IOWA

CITY           SKY/WX    TMP DP  RH WIND       PRES   REMARKS
CEDAR RAPIDS   PTSUNNY   68  56  65 SW15G24   29.88F
6HR MIN TEMP:  48; 6HR MAX TEMP:  68; 6HR PCP: TRACE;

CHARLES CITY * PTSUNNY   64  54  68 W12G18    29.88F
CLINTON *      LGT RAIN  66  52  60 SW12      29.93F
DECORAH *      MOSUNNY   63  52  67 VRB6G13   29.87F
DUBUQUE        PTSUNNY   59  52  77 S6        29.92F
6HR MIN TEMP:  45; 6HR MAX TEMP:  59; 6HR PCP:  0.06;

MONTICELLO *   MOSUNNY   61  54  77 SE8       29.90F
OELWEIN *      MOSUNNY   63  55  77 SW13G18   29.89F
WATERLOO       SUNNY     67  53  61 SW10G17   29.86F
6HR MIN TEMP:  46; 6HR MAX TEMP:  67; 6HR PCP:  0.06;

$$

IAZ064-065-067-068-078-221900-
   EAST CENTRAL IOWA

CITY           SKY/WX    TMP DP  RH WIND       PRES   REMARKS
DAVENPORT      LGT RAIN  67  51  56 SW21G32   29.94F
6HR MIN TEMP:  49; 6HR MAX TEMP:  70; 6HR PCP: TRACE;

IOWA CITY      PTSUNNY   70  52  52 SW18G32   29.92F
6HR MIN TEMP:  48; 6HR MAX TEMP:  72;

MT. PLEASANT * LGT RAIN  60  55  82 S15       29.98F
MUSCATINE *    CLOUDY    68  52  56 SW18G32   29.94F
QUAD CITIES    CLOUDY    72  48  42 SW17G25   29.93F
6HR MIN TEMP:  51; 6HR MAX TEMP:  74;

$$

IAZ062-063-075>077-085>089-095>099-221900-
   SOUTHEAST IOWA

CITY           SKY/WX    TMP DP  RH WIND       PRES   REMARKS
BURLINGTON     LGT RAIN  63  55  75 SW20G35   30.00R
6HR MIN TEMP:  52; 6HR MAX TEMP:  72; 6HR PCP:  0.01;

FAIRFIELD *    CLOUDY    64  55  72 S17       29.95S
FORT MADISON * LGT RAIN  61  54  77 SW7       30.01R
KEOKUK *       CLOUDY    63  55  77 SW6       30.00S
OSKALOOSA *      N/A     67  56  67 SW23      29.93F
OTTUMWA        CLOUDY    65  55  70 SW17G23   29.94F
6HR MIN TEMP:  52; 6HR MAX TEMP:  68; 6HR PCP: TRACE;

WASHINGTON *   CLOUDY    66  55  68 SW20G30   29.95S
$$

ABBREVIATIONS USED IN REMARKS
   TC - TEMPERATURES IN CELSIUS
  WCI - WIND CHILL INDEX
   HX - HEAT INDEX
  VSB - VISIBILITY
$$





USA.gov is the U.S. government's official web portal to all federal, state and local government web resources and services.